Fecha, hora, temperatura, viento dirección y velocidad, humedad y presión.

  • 23-08-2019 15:00:00 | 22.80°C | Oeste |6.00 km/h | 33.00% | 0.00 hPa
  • 23-08-2019 14:00:00 | 22.20°C | Noroeste |5.00 km/h | 33.00% | 0.00 hPa
  • 23-08-2019 13:00:00 | 22.00°C | Norte |6.00 km/h | 34.00% | 0.00 hPa
  • 23-08-2019 12:00:00 | 21.90°C | Norte |5.00 km/h | 33.00% | 0.00 hPa
  • 23-08-2019 11:00:00 | 21.90°C | Calma |0.00 km/h | 34.00% | 0.00 hPa
  • 23-08-2019 10:00:00 | 20.30°C | Noroeste |2.00 km/h | 37.00% | 0.00 hPa
  • 23-08-2019 09:00:00 | 16.20°C | Sudoeste |9.00 km/h | 43.00% | 0.00 hPa
  • 23-08-2019 08:00:00 | 14.90°C | Sudoeste |13.00 km/h | 40.00% | 0.00 hPa
  • 23-08-2019 07:00:00 | 14.80°C | Sudoeste |13.00 km/h | 36.00% | 0.00 hPa
  • 23-08-2019 06:00:00 | 14.50°C | Sur |11.00 km/h | 35.00% | 0.00 hPa
  • 23-08-2019 05:00:00 | 14.80°C | Sur |10.00 km/h | 33.00% | 0.00 hPa
  • 23-08-2019 04:00:00 | 14.90°C | Sur |10.00 km/h | 34.00% | 0.00 hPa
  • 23-08-2019 03:00:00 | 15.20°C | Sur |12.00 km/h | 35.00% | 0.00 hPa
  • 23-08-2019 02:00:00 | 16.00°C | Sur |17.00 km/h | 39.00% | 0.00 hPa
  • 23-08-2019 01:00:00 | 15.70°C | Sur |15.00 km/h | 49.00% | 0.00 hPa
  • 23-08-2019 00:00:00 | 14.40°C | Sur |10.00 km/h | 43.00% | 0.00 hPa
  • 22-08-2019 23:00:00 | 14.50°C | Sudoeste |12.00 km/h | 53.00% | 0.00 hPa
  • 22-08-2019 22:00:00 | 14.30°C | Sudoeste |8.00 km/h | 57.00% | 0.00 hPa
  • 22-08-2019 21:00:00 | 14.30°C | Sur |9.00 km/h | 64.00% | 0.00 hPa
  • 22-08-2019 20:00:00 | 18.60°C | Oeste |3.00 km/h | 58.00% | 0.00 hPa
  • 22-08-2019 19:00:00 | 18.90°C | Noroeste |5.00 km/h | 56.00% | 0.00 hPa
  • 22-08-2019 18:00:00 | 19.80°C | Noroeste |7.00 km/h | 50.00% | 0.00 hPa
  • 22-08-2019 17:00:00 | 20.40°C | Noroeste |6.00 km/h | 41.00% | 0.00 hPa
  • 22-08-2019 16:00:00 | 20.50°C | Noroeste |6.00 km/h | 44.00% | 0.00 hPa
    • diseño web asturias Información sobre el estado de las mareas, altura de la marejada, temperatura del agua y otros datos de Gijón en Asturias.

      Surf Gijón